Back to catalog

USA 43

AliveMilitaryGEO
NORAD 20202·PAYLOAD·🇺🇸 United States

Launched Sep 4, 1989 from Cape Canaveral Space Force Station

Loading…

TLE

FreshSource: Space-Track

Epoch: Sep 13, 2026, 22:41 UTC

1 20202U 89069A   26256.94573721 -.00000056  00000-0  00000+0 0  9998
2 20202  12.8219 335.9287 0019332 273.3464 120.4390  0.98610809 26687

Track USA 43 in real time with AllMySat

Download on the App Store